Previsão horária em Abez

Hoje, 18 Abril, Domingo

Tempo Temperatura Precipitação Vento Pressão Humidade
00:00 -21°C° 0 mm 3 m/s 762 mmHg 90%
01:00 -22°C° 0 mm 3 m/s 763 mmHg 90%
02:00 -23°C° 0 mm 3 m/s 764 mmHg 91%
03:00 -23°C° 0 mm 3 m/s 765 mmHg 91%
04:00 -25°C° 0 mm 3 m/s 765 mmHg 93%
05:00 -23°C° 0 mm 3 m/s 766 mmHg 92%
06:00 -20°C° 0 mm 2 m/s 767 mmHg 90%
07:00 -19°C° 0 mm 2 m/s 767 mmHg 89%
08:00 -17°C° 0 mm 2 m/s 768 mmHg 87%
09:00 -16°C° 0 mm 2 m/s 768 mmHg 86%
10:00 -15°C° 0 mm 3 m/s 769 mmHg 84%
11:00 -14°C° 0 mm 3 m/s 769 mmHg 82%
12:00 -15°C° 0 mm 4 m/s 769 mmHg 80%
13:00 -14°C° 0 mm 5 m/s 769 mmHg 77%
14:00 -14°C° 0 mm 5 m/s 769 mmHg 78%
15:00 -14°C° 0 mm 5 m/s 770 mmHg 79%
16:00 -14°C° 0 mm 4 m/s 770 mmHg 80%
17:00 -15°C° 0 mm 4 m/s 770 mmHg 84%
18:00 -16°C° 0 mm 3 m/s 770 mmHg 89%
19:00 -16°C° 0 mm 2 m/s 770 mmHg 93%
20:00 -16°C° 0 mm 1 m/s 770 mmHg 95%
21:00 -17°C° 0 mm 1 m/s 770 mmHg 97%
22:00 -18°C° 0 mm 1 m/s 770 mmHg 99%
23:00 -18°C° 0 mm 1 m/s 770 mmHg 99%

Amanhã, 19 Abril, Segunda-feira

Tempo Temperatura Precipitação Vento Pressão Humidade
00:00 -21°C° 0 mm 2 m/s 770 mmHg 99%
01:00 -21°C° 0 mm 2 m/s 770 mmHg 99%
02:00 -19°C° 0 mm 2 m/s 770 mmHg 98%
03:00 -19°C° 0 mm 3 m/s 770 mmHg 97%
04:00 -17°C° 0 mm 3 m/s 770 mmHg 96%
05:00 -17°C° 0.1 mm 4 m/s 770 mmHg 95%
06:00 -15°C° 0.1 mm 4 m/s 769 mmHg 94%
07:00 -14°C° 0.1 mm 5 m/s 769 mmHg 93%
08:00 -14°C° 0.1 mm 6 m/s 769 mmHg 91%
09:00 -12°C° 0.1 mm 7 m/s 768 mmHg 89%
10:00 -11°C° 0.1 mm 8 m/s 768 mmHg 88%
11:00 -10°C° 0 mm 8 m/s 767 mmHg 87%
12:00 -9°C° 0 mm 9 m/s 766 mmHg 86%
13:00 -8°C° 0 mm 10 m/s 765 mmHg 85%
14:00 -8°C° 0.4 mm 10 m/s 764 mmHg 88%
15:00 -8°C° 0.4 mm 11 m/s 763 mmHg 91%
16:00 -7°C° 0.4 mm 12 m/s 762 mmHg 94%
17:00 -7°C° 0.9 mm 12 m/s 761 mmHg 95%
18:00 -7°C° 0.9 mm 12 m/s 761 mmHg 95%
19:00 -6°C° 0.9 mm 13 m/s 760 mmHg 96%
20:00 -6°C° 0.8 mm 13 m/s 759 mmHg 96%
21:00 -6°C° 0.8 mm 12 m/s 759 mmHg 96%
22:00 -5°C° 0.8 mm 12 m/s 758 mmHg 96%
23:00 -5°C° 0.4 mm 12 m/s 758 mmHg 94%

Depois de amanhã, 20 Abril, Terça-feira

Tempo Temperatura Precipitação Vento Pressão Humidade
00:00 -4°C° 0.4 mm 11 m/s 758 mmHg 92%
01:00 -4°C° 0.4 mm 11 m/s 758 mmHg 90%
02:00 -4°C° 0 mm 10 m/s 758 mmHg 90%
03:00 -4°C° 0 mm 10 m/s 758 mmHg 90%
04:00 -5°C° 0 mm 9 m/s 758 mmHg 90%
05:00 -5°C° 0 mm 9 m/s 758 mmHg 91%
06:00 -5°C° 0 mm 9 m/s 758 mmHg 92%
07:00 -5°C° 0 mm 9 m/s 759 mmHg 93%
08:00 -5°C° 0 mm 8 m/s 759 mmHg 93%
09:00 -4°C° 0 mm 8 m/s 759 mmHg 94%
10:00 -4°C° 0 mm 8 m/s 759 mmHg 95%
11:00 -4°C° 0 mm 8 m/s 759 mmHg 96%
12:00 -4°C° 0 mm 8 m/s 760 mmHg 97%
13:00 -3°C° 0 mm 7 m/s 760 mmHg 99%
14:00 -3°C° 0.2 mm 7 m/s 760 mmHg 99%
15:00 -2°C° 0.2 mm 6 m/s 761 mmHg 99%
16:00 -2°C° 0.2 mm 6 m/s 761 mmHg 99%
17:00 -2°C° 0.4 mm 5 m/s 761 mmHg 99%
18:00 -2°C° 0.4 mm 5 m/s 762 mmHg 98%
19:00 -2°C° 0.4 mm 5 m/s 762 mmHg 98%
20:00 -2°C° 0.1 mm 5 m/s 762 mmHg 98%
21:00 -1°C° 0.1 mm 5 m/s 762 mmHg 98%
22:00 -1°C° 0.1 mm 5 m/s 763 mmHg 97%
23:00 -1°C° 0.1 mm 5 m/s 763 mmHg 97%

21 Abril, Quarta-feira

Tempo Temperatura Precipitação Vento Pressão Humidade
00:00 -2°C° 0.1 mm 5 m/s 763 mmHg 97%
01:00 -2°C° 0.1 mm 5 m/s 763 mmHg 97%
02:00 -2°C° 0 mm 5 m/s 764 mmHg 96%
03:00 -2°C° 0 mm 5 m/s 764 mmHg 95%
04:00 -2°C° 0 mm 5 m/s 764 mmHg 94%
05:00 -4°C° 0 mm 5 m/s 765 mmHg 95%
06:00 -3°C° 0 mm 4 m/s 765 mmHg 96%
07:00 -4°C° 0 mm 4 m/s 765 mmHg 97%
08:00 -3°C° 0 mm 4 m/s 766 mmHg 98%
09:00 -3°C° 0 mm 4 m/s 766 mmHg 98%
10:00 -2°C° 0 mm 4 m/s 766 mmHg 98%
11:00 -2°C° 0 mm 4 m/s 766 mmHg 99%
12:00 0°C° 0 mm 3 m/s 766 mmHg 99%
13:00 0°C° 0 mm 3 m/s 766 mmHg 99%
14:00 0°C° 0 mm 3 m/s 766 mmHg 99%
15:00 0°C° 0 mm 3 m/s 766 mmHg 98%
16:00 +1°C° 0 mm 3 m/s 766 mmHg 97%
17:00 +1°C° 0 mm 2 m/s 766 mmHg 96%
18:00 +1°C° 0 mm 2 m/s 766 mmHg 95%
19:00 +1°C° 0 mm 2 m/s 766 mmHg 94%
20:00 -1°C° 0 mm 2 m/s 765 mmHg 94%
21:00 -2°C° 0 mm 2 m/s 765 mmHg 95%
22:00 -4°C° 0 mm 2 m/s 765 mmHg 95%
23:00 -4°C° 0 mm 2 m/s 765 mmHg 95%

22 Abril, Quinta-feira

Tempo Temperatura Precipitação Vento Pressão Humidade
00:00 -5°C° 0 mm 2 m/s 765 mmHg 95%
01:00 -5°C° 0 mm 2 m/s 764 mmHg 95%
02:00 -5°C° 0 mm 2 m/s 764 mmHg 92%
03:00 -6°C° 0 mm 3 m/s 764 mmHg 90%
04:00 -6°C° 0 mm 3 m/s 764 mmHg 88%
05:00 -4°C° 0 mm 3 m/s 763 mmHg 87%
06:00 -2°C° 0 mm 3 m/s 763 mmHg 87%
07:00 0°C° 0 mm 3 m/s 763 mmHg 86%
08:00 0°C° 0 mm 3 m/s 762 mmHg 90%
09:00 +1°C° 0 mm 3 m/s 762 mmHg 95%
10:00 +1°C° 0 mm 3 m/s 761 mmHg 99%
11:00 0°C° 0 mm 4 m/s 761 mmHg 99%
12:00 0°C° 0 mm 4 m/s 761 mmHg 99%
13:00 0°C° 0 mm 5 m/s 761 mmHg 99%
14:00 +1°C° 0 mm 5 m/s 761 mmHg 99%
15:00 +1°C° 0 mm 5 m/s 761 mmHg 99%
16:00 +1°C° 0 mm 4 m/s 761 mmHg 99%
17:00 +1°C° 0 mm 4 m/s 761 mmHg 97%
18:00 +1°C° 0 mm 3 m/s 761 mmHg 96%
19:00 +1°C° 0 mm 3 m/s 761 mmHg 94%
20:00 +1°C° 0 mm 3 m/s 761 mmHg 92%
21:00 +1°C° 0 mm 3 m/s 761 mmHg 91%
22:00 +1°C° 0 mm 3 m/s 761 mmHg 89%
23:00 +1°C° 0.2 mm 3 m/s 761 mmHg 90%

23 Abril, Sexta-feira

Tempo Temperatura Precipitação Vento Pressão Humidade
00:00 +1°C° 0.2 mm 3 m/s 761 mmHg 91%
01:00 +1°C° 0.2 mm 3 m/s 761 mmHg 92%
02:00 +1°C° 0 mm 3 m/s 761 mmHg 91%
03:00 +1°C° 0 mm 3 m/s 761 mmHg 91%
04:00 0°C° 0 mm 4 m/s 761 mmHg 90%
05:00 +1°C° 0 mm 3 m/s 761 mmHg 91%
06:00 +1°C° 0 mm 3 m/s 761 mmHg 91%
07:00 +1°C° 0 mm 3 m/s 761 mmHg 92%
08:00 +1°C° 0 mm 4 m/s 761 mmHg 93%
09:00 +1°C° 0 mm 4 m/s 761 mmHg 94%
10:00 +2°C° 0 mm 5 m/s 761 mmHg 95%
11:00 +2°C° 0 mm 5 m/s 761 mmHg 94%
12:00 +2°C° 0 mm 5 m/s 761 mmHg 93%
13:00 +2°C° 0 mm 5 m/s 762 mmHg 92%
14:00 +2°C° 0 mm 6 m/s 762 mmHg 91%
15:00 +3°C° 0 mm 6 m/s 762 mmHg 90%
16:00 +3°C° 0 mm 6 m/s 763 mmHg 89%
17:00 +3°C° 0 mm 6 m/s 763 mmHg 89%
18:00 +2°C° 0 mm 5 m/s 763 mmHg 89%
19:00 +2°C° 0 mm 5 m/s 763 mmHg 89%
20:00 +2°C° 0 mm 5 m/s 764 mmHg 88%
21:00 +1°C° 0 mm 5 m/s 764 mmHg 88%
22:00 +1°C° 0 mm 5 m/s 764 mmHg 87%
23:00 +1°C° 0 mm 5 m/s 765 mmHg 88%
Mostrar mais